Location: ????
(32.1228°N, 34.8377°E)
Time: 02:35:17
(UTC+00:00)

CZ-2C R/B - Pass Details

Date: 21 September 2020
Orbit: 669 x 783 km, 98.2° (Epoch: 23 October)

Event Time Altitude Azimuth Distance (km) Brightness Sun altitude
Rises 00:58:25 0° 22° (NNE) 3,251 6.4 -31.7°
Reaches altitude 10° 01:00:54 10° 31° (NNE) 2,330 5.6 -31.2°
Maximum altitude 01:05:39 37° 98° (E) 1,203 3.8 -30.3°
Enters shadow 01:08:03 24° 147° (SSE) 1,573 4.1 -29.8°
